Location: Mat�lon
(46.2791°N, 7.1028°E)
Time: 18:35:56
(UTC+00:00)

Tiangong - Pass Details

Date: 01 October 2021
Orbit: 382 x 384 km, 41.5° (Epoch: 20 October)

Event Time Altitude Azimuth Distance (km) Brightness Sun altitude
Exits shadow 03:49:04 30° 177° (S) 715 2.3 -18.1°
Maximum altitude 03:49:13 30° 172° (S) 712 2.3 -18.1°
Drops below altitude 10° 03:52:07 10° 108° (ESE) 1,426 4.8 -17.6°
Sets 03:54:14 0° 97° (E) 2,250 6.3 -17.3°
